Погода в Новопокровке

Украина / Днепропетровская область     48°03′21″N   34°36′12″E
темп.,
°C
ветер,
м/с
пор.,
м/с
влажн.,
%
обл.,
%
осадки,
мм/ч
давл.,
гПа
погр.,
м
24 мая, вт
вт2400:00+9ссз3375100 0.0 101041
03:00+9ссв34785 0.0 101157
06:00+9ссв357399 0.0 101199
09:00+15ссв3346100 0.0 1012740
12:00+17сз3438100 0.0 10122373
15:00+17сз234555 0.0 10131474
18:00+15с345942 0.1 1013454
21:00+13с226446 0.1 101521
25 мая, ср
ср2500:00+10сз22686 0.0 101611
03:00+9зсз22695 0.0 101718
06:00+9сз356727 0.0 101895
09:00+15ссз45570 0.0 1018691
12:00+19ссз44415 0.0 10191989
15:00+20ссз343636 0.0 10182480
18:00+20ссз233793 0.0 10182278
21:00+17вюв2244100 0.0 101918
26 мая, чт
чт2600:00+14ю335477 0.0 101942
03:00+13ююз346522 0.0 101946
06:00+12юз37735 0.0 1018128
09:00+17юз71053100 0.0 1017774
12:00+16юз61159100 0.1 1017910
15:00+14ююз61281100 2.7 1017831
18:00+16юз6107515 0.1 1016531
21:00+14юз33901 0.1 101630
27 мая, пт
пт2700:00+13з34884 0.0 101642
03:00+11з47865 0.0 1017109
06:00+12з488616 0.0 1017169
09:00+18з6105812 0.0 1016762
12:00+22зсз8114729 0.0 10162188
15:00+22сз5952100 0.0 10151576
18:00+21зсз2360100 0.0 1014107
21:00+18ююз3365100 0.0 101448
28 мая, сб
сб2800:00+17юз51171100 0.0 1013303
03:00+17юз61467100 0.0 1012453
06:00+15ююз61675100 0.0 1011456
09:00+18юз7126611 0.0 1011818
12:00+21з676576 0.1 10111278
15:00+23сз675755 0.9 10101619
18:00+20ссз665993 0.1 1012797
21:00+16с246168 0.1 1014108